Time,TemperatureF,DewpointF,PressureIn,WindDirection,WindDirectionDegrees,WindSpeedMPH,WindSpeedGustMPH,Humidity,HourlyPrecipIn,Conditions,Clouds,dailyrainin,SoftwareType,DateUTC
2013-08-16 00:02:00,52.5,51.1,30.11,SSE,157,0.0,-999.0,95,-99.99,,,0.00,Acu-Link.com,2013-08-16 04:02:00,
2013-08-16 00:17:00,52.0,50.9,30.11,NNW,337,0.0,-999.0,96,-99.99,,,0.00,Acu-Link.com,2013-08-16 04:17:00,
2013-08-16 00:33:00,51.4,50.3,30.11,NNE,22,0.0,-999.0,96,-99.99,,,0.00,Acu-Link.com,2013-08-16 04:33:00,
2013-08-16 00:48:00,51.3,50.5,30.10,NNE,22,0.0,-999.0,97,-99.99,,,0.00,Acu-Link.com,2013-08-16 04:48:00,
2013-08-16 01:03:00,50.7,49.9,30.10,ESE,112,0.0,-999.0,97,-99.99,,,0.00,Acu-Link.com,2013-08-16 05:03:00,
2013-08-16 01:34:00,50.0,49.2,30.10,WNW,292,0.0,-999.0,97,-99.99,,,0.00,Acu-Link.com,2013-08-16 05:34:00,
2013-08-16 01:49:00,49.8,49.0,30.10,NE,45,0.0,-999.0,97,-99.99,,,0.00,Acu-Link.com,2013-08-16 05:49:00,
2013-08-16 02:04:00,49.5,48.7,30.10,NE,45,0.0,-999.0,97,-99.99,,,0.00,Acu-Link.com,2013-08-16 06:04:00,
2013-08-16 02:20:00,49.1,48.6,30.10,WNW,292,0.0,-999.0,98,-99.99,,,0.00,Acu-Link.com,2013-08-16 06:20:00,
2013-08-16 02:35:00,49.1,48.6,30.10,SSE,157,0.0,-999.0,98,-99.99,,,0.00,Acu-Link.com,2013-08-16 06:35:00,
2013-08-16 02:51:00,48.4,47.9,30.10,WNW,292,1.7,-999.0,98,-99.99,,,0.00,Acu-Link.com,2013-08-16 06:51:00,
2013-08-16 03:06:00,48.2,47.7,30.10,South,180,0.0,-999.0,98,-99.99,,,0.00,Acu-Link.com,2013-08-16 07:06:00,
2013-08-16 03:22:00,48.4,47.9,30.10,NE,45,0.0,-999.0,98,-99.99,,,0.00,Acu-Link.com,2013-08-16 07:22:00,
2013-08-16 03:37:00,47.7,47.2,30.11,SSW,202,1.7,-999.0,98,-99.99,,,0.00,Acu-Link.com,2013-08-16 07:37:00,
2013-08-16 03:52:00,47.7,47.2,30.10,NNW,337,0.0,-999.0,98,-99.99,,,0.00,Acu-Link.com,2013-08-16 07:52:00,
2013-08-16 04:07:00,47.3,46.8,30.10,SSE,157,0.0,-999.0,98,-99.99,,,0.00,Acu-Link.com,2013-08-16 08:07:00,
2013-08-16 04:23:00,47.3,46.8,30.11,ENE,67,0.0,-999.0,98,-99.99,,,0.00,Acu-Link.com,2013-08-16 08:23:00,
2013-08-16 04:38:00,47.3,46.8,30.11,NE,45,0.0,-999.0,98,-99.99,,,0.00,Acu-Link.com,2013-08-16 08:38:00,
2013-08-16 04:53:00,46.9,46.4,30.11,NNW,337,0.0,-999.0,98,-99.99,,,0.00,Acu-Link.com,2013-08-16 08:53:00,
2013-08-16 05:08:00,46.9,46.4,30.11,ESE,112,0.0,-999.0,98,-99.99,,,0.00,Acu-Link.com,2013-08-16 09:08:00,
2013-08-16 05:24:00,46.8,46.3,30.11,ESE,112,0.0,-999.0,98,-99.99,,,0.00,Acu-Link.com,2013-08-16 09:24:00,
2013-08-16 05:39:00,46.8,46.3,30.12,NNE,22,0.0,-999.0,98,-99.99,,,0.00,Acu-Link.com,2013-08-16 09:39:00,
2013-08-16 05:54:00,46.6,46.1,30.12,ESE,112,0.0,-999.0,98,-99.99,,,0.00,Acu-Link.com,2013-08-16 09:54:00,
2013-08-16 06:09:00,46.6,46.1,30.13,ESE,112,0.0,-999.0,98,-99.99,,,0.00,Acu-Link.com,2013-08-16 10:09:00,
2013-08-16 06:24:00,46.6,46.1,30.13,NNW,337,0.0,-999.0,98,-99.99,,,0.00,Acu-Link.com,2013-08-16 10:24:00,
2013-08-16 06:40:00,46.8,46.3,30.13,West,270,0.0,-999.0,98,-99.99,,,0.00,Acu-Link.com,2013-08-16 10:40:00,
2013-08-16 06:55:00,47.8,47.3,30.14,NNE,22,0.0,-999.0,98,-99.99,,,0.00,Acu-Link.com,2013-08-16 10:55:00,
2013-08-16 07:10:00,49.5,49.0,30.14,NNE,22,0.0,-999.0,98,-99.99,,,0.00,Acu-Link.com,2013-08-16 11:10:00,
2013-08-16 07:26:00,50.4,49.9,30.14,NE,45,1.1,-999.0,98,-99.99,,,0.00,Acu-Link.com,2013-08-16 11:26:00,
2013-08-16 07:41:00,51.3,50.8,30.15,NE,45,0.0,-999.0,98,-99.99,,,0.00,Acu-Link.com,2013-08-16 11:41:00,
2013-08-16 07:57:00,52.3,51.8,30.15,SE,135,0.0,-999.0,98,-99.99,,,0.00,Acu-Link.com,2013-08-16 11:57:00,
2013-08-16 08:12:00,53.6,53.0,30.15,WSW,247,0.0,-999.0,98,-99.99,,,0.00,Acu-Link.com,2013-08-16 12:12:00,
2013-08-16 08:27:00,54.9,54.3,30.15,SW,225,0.0,-999.0,98,-99.99,,,0.00,Acu-Link.com,2013-08-16 12:27:00,
2013-08-16 08:42:00,56.1,55.5,30.15,WSW,247,0.0,-999.0,98,-99.99,,,0.00,Acu-Link.com,2013-08-16 12:42:00,
2013-08-16 08:58:00,57.7,56.6,30.15,SW,225,0.0,-999.0,96,-99.99,,,0.00,Acu-Link.com,2013-08-16 12:58:00,
2013-08-16 09:13:00,60.4,56.8,30.15,NE,45,1.7,-999.0,88,-99.99,,,0.00,Acu-Link.com,2013-08-16 13:13:00,
2013-08-16 09:29:00,61.9,56.3,30.15,NE,45,2.2,-999.0,82,-99.99,,,0.00,Acu-Link.com,2013-08-16 13:29:00,
2013-08-16 09:44:00,62.6,57.4,30.14,WNW,292,0.0,-999.0,83,-99.99,,,0.00,Acu-Link.com,2013-08-16 13:44:00,
2013-08-16 09:59:00,64.2,57.5,30.14,NNE,22,2.2,-999.0,79,-99.99,,,0.00,Acu-Link.com,2013-08-16 13:59:00,
2013-08-16 10:15:00,65.7,57.6,30.14,NNW,337,1.7,-999.0,75,-99.99,,,0.00,Acu-Link.com,2013-08-16 14:15:00,
2013-08-16 10:30:00,66.9,57.6,30.14,SSE,157,1.7,-999.0,72,-99.99,,,0.00,Acu-Link.com,2013-08-16 14:30:00,
2013-08-16 10:45:00,68.5,58.7,30.14,SSE,157,0.0,-999.0,71,-99.99,,,0.00,Acu-Link.com,2013-08-16 14:45:00,
2013-08-16 11:00:00,68.5,55.8,30.14,WNW,292,1.7,-999.0,64,-99.99,,,0.00,Acu-Link.com,2013-08-16 15:00:00,
2013-08-16 11:16:00,69.1,56.0,30.14,SW,225,2.7,-999.0,63,-99.99,,,0.00,Acu-Link.com,2013-08-16 15:16:00,
2013-08-16 11:31:00,70.0,55.5,30.14,South,180,3.2,-999.0,60,-99.99,,,0.00,Acu-Link.com,2013-08-16 15:31:00,
2013-08-16 11:46:00,70.7,55.7,30.14,NW,315,3.7,-999.0,59,-99.99,,,0.00,Acu-Link.com,2013-08-16 15:46:00,
2013-08-16 12:02:00,70.7,56.1,30.14,South,180,2.2,-999.0,60,-99.99,,,0.00,Acu-Link.com,2013-08-16 16:02:00,
2013-08-16 12:17:00,70.3,56.7,30.14,South,180,0.0,-999.0,62,-99.99,,,0.00,Acu-Link.com,2013-08-16 16:17:00,
2013-08-16 12:32:00,71.2,58.4,30.14,ESE,112,0.0,-999.0,64,-99.99,,,0.00,Acu-Link.com,2013-08-16 16:32:00,
2013-08-16 12:48:00,71.8,56.7,30.13,North,0,1.7,-999.0,59,-99.99,,,0.00,Acu-Link.com,2013-08-16 16:48:00,
2013-08-16 13:03:00,73.6,57.9,30.14,SSE,157,2.7,-999.0,58,-99.99,,,0.00,Acu-Link.com,2013-08-16 17:03:00,
2013-08-16 13:18:00,74.1,57.4,30.13,NNE,22,0.0,-999.0,56,-99.99,,,0.00,Acu-Link.com,2013-08-16 17:18:00,
2013-08-16 13:33:00,73.0,56.9,30.14,WSW,247,0.0,-999.0,57,-99.99,,,0.00,Acu-Link.com,2013-08-16 17:33:00,
2013-08-16 13:49:00,72.5,55.9,30.13,NNW,337,2.2,-999.0,56,-99.99,,,0.00,Acu-Link.com,2013-08-16 17:49:00,
2013-08-16 14:04:00,73.2,56.5,30.13,West,270,2.2,-999.0,56,-99.99,,,0.00,Acu-Link.com,2013-08-16 18:04:00,
2013-08-16 14:19:00,73.0,57.8,30.13,NNW,337,0.0,-999.0,59,-99.99,,,0.00,Acu-Link.com,2013-08-16 18:19:00,
2013-08-16 14:34:00,72.9,57.7,30.13,SW,225,0.0,-999.0,59,-99.99,,,0.00,Acu-Link.com,2013-08-16 18:34:00,
2013-08-16 14:50:00,72.1,58.8,30.13,South,180,0.0,-999.0,63,-99.99,,,0.00,Acu-Link.com,2013-08-16 18:50:00,
2013-08-16 15:05:00,73.0,57.8,30.13,SW,225,0.0,-999.0,59,-99.99,,,0.00,Acu-Link.com,2013-08-16 19:05:00,
2013-08-16 15:20:00,73.6,54.3,30.13,NNE,22,1.1,-999.0,51,-99.99,,,0.00,Acu-Link.com,2013-08-16 19:20:00,
2013-08-16 15:36:00,71.4,56.8,30.13,WNW,292,0.0,-999.0,60,-99.99,,,0.00,Acu-Link.com,2013-08-16 19:36:00,
2013-08-16 15:51:00,73.8,55.1,30.12,WNW,292,3.2,-999.0,52,-99.99,,,0.00,Acu-Link.com,2013-08-16 19:51:00,
2013-08-16 16:06:00,76.8,56.2,30.12,East,90,0.0,-999.0,49,-99.99,,,0.00,Acu-Link.com,2013-08-16 20:06:00,
2013-08-16 16:21:00,74.5,58.3,30.13,WSW,247,0.0,-999.0,57,-99.99,,,0.00,Acu-Link.com,2013-08-16 20:21:00,
2013-08-16 16:37:00,73.9,56.7,30.13,SSW,202,2.7,-999.0,55,-99.99,,,0.00,Acu-Link.com,2013-08-16 20:37:00,
2013-08-16 16:52:00,72.7,57.5,30.13,WNW,292,1.1,-999.0,59,-99.99,,,0.00,Acu-Link.com,2013-08-16 20:52:00,
2013-08-16 17:08:00,70.9,59.0,30.13,WSW,247,2.2,-999.0,66,-99.99,,,0.00,Acu-Link.com,2013-08-16 21:08:00,
2013-08-16 17:23:00,71.1,57.0,30.13,WSW,247,0.0,-999.0,61,-99.99,,,0.00,Acu-Link.com,2013-08-16 21:23:00,
2013-08-16 17:39:00,70.7,58.3,30.13,NW,315,1.1,-999.0,65,-99.99,,,0.00,Acu-Link.com,2013-08-16 21:39:00,
2013-08-16 17:54:00,71.1,57.4,30.13,NNE,22,0.0,-999.0,62,-99.99,,,0.00,Acu-Link.com,2013-08-16 21:54:00,
2013-08-16 18:09:00,70.7,57.9,30.13,SE,135,0.0,-999.0,64,-99.99,,,0.00,Acu-Link.com,2013-08-16 22:09:00,
2013-08-16 18:24:00,69.3,58.7,30.13,ESE,112,0.0,-999.0,69,-99.99,,,0.00,Acu-Link.com,2013-08-16 22:24:00,
2013-08-16 18:40:00,68.2,58.8,30.13,South,180,0.0,-999.0,72,-99.99,,,0.00,Acu-Link.com,2013-08-16 22:40:00,
2013-08-16 18:55:00,66.7,58.5,30.14,SW,225,0.0,-999.0,75,-99.99,,,0.00,Acu-Link.com,2013-08-16 22:55:00,
2013-08-16 19:10:00,65.7,58.3,30.14,South,180,0.0,-999.0,77,-99.99,,,0.00,Acu-Link.com,2013-08-16 23:10:00,
2013-08-16 19:26:00,64.8,57.8,30.15,South,180,0.0,-999.0,78,-99.99,,,0.00,Acu-Link.com,2013-08-16 23:26:00,
2013-08-16 19:41:00,63.9,57.6,30.16,SSE,157,0.0,-999.0,80,-99.99,,,0.00,Acu-Link.com,2013-08-16 23:41:00,
2013-08-16 19:56:00,63.1,57.5,30.15,SSE,157,0.0,-999.0,82,-99.99,,,0.00,Acu-Link.com,2013-08-16 23:56:00,
2013-08-16 20:12:00,62.4,56.8,30.16,SSE,157,0.0,-999.0,82,-99.99,,,0.00,Acu-Link.com,2013-08-17 00:12:00,
2013-08-16 20:27:00,62.1,56.9,30.16,SSE,157,0.0,-999.0,83,-99.99,,,0.00,Acu-Link.com,2013-08-17 00:27:00,
2013-08-16 20:42:00,61.5,57.3,30.17,SSE,157,0.0,-999.0,86,-99.99,,,0.00,Acu-Link.com,2013-08-17 00:42:00,
2013-08-16 20:57:00,60.8,56.6,30.17,SSE,157,0.0,-999.0,86,-99.99,,,0.00,Acu-Link.com,2013-08-17 00:57:00,
2013-08-16 21:12:00,60.4,56.8,30.18,SSE,157,0.0,-999.0,88,-99.99,,,0.00,Acu-Link.com,2013-08-17 01:12:00,
2013-08-16 21:28:00,59.5,56.3,30.18,North,0,0.0,-999.0,89,-99.99,,,0.00,Acu-Link.com,2013-08-17 01:28:00,
2013-08-16 21:43:00,58.8,56.2,30.18,ESE,112,0.0,-999.0,91,-99.99,,,0.00,Acu-Link.com,2013-08-17 01:43:00,
2013-08-16 21:58:00,58.3,56.0,30.18,SE,135,0.0,-999.0,92,-99.99,,,0.00,Acu-Link.com,2013-08-17 01:58:00,
2013-08-16 22:14:00,57.6,55.9,30.18,NE,45,0.0,-999.0,94,-99.99,,,0.00,Acu-Link.com,2013-08-17 02:14:00,
2013-08-16 22:29:00,57.2,55.5,30.18,SE,135,0.0,-999.0,94,-99.99,,,0.00,Acu-Link.com,2013-08-17 02:29:00,
2013-08-16 22:44:00,56.8,55.4,30.19,SSE,157,0.0,-999.0,95,-99.99,,,0.00,Acu-Link.com,2013-08-17 02:44:00,
2013-08-16 23:00:00,56.3,55.2,30.19,NNW,337,0.0,-999.0,96,-99.99,,,0.00,Acu-Link.com,2013-08-17 03:00:00,
2013-08-16 23:15:00,55.9,54.8,30.19,ESE,112,0.0,-999.0,96,-99.99,,,0.00,Acu-Link.com,2013-08-17 03:15:00,
2013-08-16 23:30:00,55.6,54.5,30.19,NNE,22,0.0,-999.0,96,-99.99,,,0.00,Acu-Link.com,2013-08-17 03:30:00,
2013-08-16 23:45:00,55.0,54.2,30.19,NE,45,0.0,-999.0,97,-99.99,,,0.00,Acu-Link.com,2013-08-17 03:45:00,